Flag for Canada Weather past 2 weeks in Peterborough, Ontario, Canada

Now
52 °F

Overcast.


Feels Like: 47 °F
Forecast: 42 / 53 °F
Wind: 16 mph from Northwest

Location: Peterborough Airport

Current Time: Sep 22, 2014 at 1:12:31 PM

Latest Report: Sep 22, 2014 at 12:00 PM


Visibility: 9 mi

Pressure: 30.02 "Hg

Humidity: 62%

Dew point: 39 °F

Location of PeterboroughLocation

Historic Weather in Peterborough — Graph

°F

Peterborough temperature yesterday

Maximum temperature yesterday: 75 °F (at 2:00 PM)
Minimum temperature yesterday: 54 °F (at 9:54 PM)
Average temperature yesterday: 65 °F

Past Weeks' High & Low Weather Summary

 TemperatureHumidityPressure
High75 °F (Sep 21, 2:00 PM)100% (Sep 8, 12:00 AM)30.39 "Hg (Sep 8, 12:00 AM)
Low32 °F (Sep 14, 6:47 AM)33% (Sep 8, 4:00 PM)29.50 "Hg (Sep 21, 1:00 PM)
Average54 °F83%30.06 "Hg
* Reported Sep 7 12:00 Noon — Sep 22 12:00 Noon, Peterborough, Weather by CustomWeather, © 2014

Note: Actual official high and low records may vary slightly from our data, if they occured in-between our weather recording intervals... More about our weather records

Advertising

Peterborough weather history for previous 24 hours

 ConditionsComfort  
Time TempWeatherWind HumidityBarometerVisibility
12:00 PM
Sep 22
52 °FOvercast.16 mph62%30.02 "Hg9 mi
11:00 AM50 °FPartly sunny.13 mph67%30.02 "Hg9 mi
10:00 AM46 °FOvercast.13 mph76%30.01 "Hg9 mi
9:00 AM48 °FPartly sunny.17 mph71%29.97 "Hg9 mi
8:00 AM45 °FPartly sunny.13 mph81%29.95 "Hg9 mi
7:00 AM45 °FOvercast.9 mph81%29.91 "Hg9 mi
6:00 AM45 °FPassing clouds.13 mph81%29.87 "Hg9 mi
5:00 AM48 °FOvercast.15 mph76%29.85 "Hg9 mi
4:00 AM48 °FOvercast.10 mph76%29.81 "Hg9 mi
3:00 AM48 °FOvercast.10 mph82%29.80 "Hg9 mi
2:00 AM48 °FMostly cloudy.12 mph87%29.78 "Hg9 mi
1:02 AM50 °FMostly cloudy.13 mph88%29.75 "Hg9 mi
1:00 AM50 °FLight rain. Overcast.15 mph88%29.74 "Hg9 mi
12:51 AM50 °FLight rain. Mostly cloudy.16 mph82%29.75 "Hg9 mi
12:00 AM52 °FOvercast.14 mph82%29.72 "Hg9 mi
11:00 PM
Sep 21
54 °FMostly cloudy.10 mph82%29.70 "Hg9 mi
10:00 PM54 °FMostly cloudy.12 mph88%29.67 "Hg9 mi
9:54 PM54 °FMostly cloudy.10 mph88%29.66 "Hg9 mi
9:00 PM57 °FPassing clouds.10 mph88%29.62 "Hg9 mi
8:00 PM61 °FMore clouds than sun.9 mph88%29.61 "Hg9 mi
7:04 PM64 °FLight rain. Mostly cloudy.21 mph83%29.58 "Hg8 mi
7:00 PM66 °FMostly cloudy.16 mph73%29.58 "Hg9 mi
6:00 PM70 °FScattered clouds.12 mph64%29.54 "Hg9 mi
5:00 PM72 °FScattered clouds.9 mph61%29.52 "Hg9 mi
4:00 PM73 °FSunny.13 mph61%29.52 "Hg9 mi
3:00 PM75 °FPassing clouds.18 mph57%29.51 "Hg9 mi
2:00 PM75 °FScattered clouds.14 mph61%29.51 "Hg9 mi
1:00 PM73 °FScattered clouds.17 mph69%29.50 "Hg9 mi
Weather by CustomWeather, © 2014

See weather overviewHow to use our weather pages